| time (UTC) | temp C | wind direction | speed KPH | gust KPH | rain 1hr cm | rain 24hr cm | rain mn cm | humidity % | barometer mb |
| 20260906123410 | 20 | 339 | 0.0 | 3.2 | 0.00 | 0.00 | 0.00 | 99 | 1016.4 |
| 20260906122910 | 20 | 339 | 3.2 | 3.2 | 0.00 | 0.00 | 0.00 | 99 | 1016.1 |
| 20260906122405 | 20 | 339 | 3.2 | 3.2 | 0.00 | 0.00 | 0.00 | 99 | 1016.1 |
| 20260906121902 | 20 | 339 | 3.2 | 3.2 | 0.00 | 0.00 | 0.00 | 99 | 1016.0 |
| 20260906121357 | 20 | 339 | 3.2 | 3.2 | 0.00 | 0.00 | 0.00 | 99 | 1016.3 |
| 20260906120853 | 20 | 339 | 1.6 | 3.2 | 0.00 | 0.00 | 0.00 | 99 | 1015.9 |
| 20260906120349 | 20 | 339 | 1.6 | 3.2 | 0.00 | 0.00 | 0.00 | 99 | 1015.9 |
| 20260906115845 | 20 | 339 | 1.6 | 3.2 | 0.00 | 0.00 | 0.00 | 99 | 1015.8 |
| 20260906115340 | 20 | 339 | 3.2 | 3.2 | 0.00 | 0.00 | 0.00 | 99 | 1015.8 |
| 20260906114839 | 20 | 339 | 1.6 | 3.2 | 0.00 | 0.00 | 0.00 | 99 | 1015.8 |
| 20260906114335 | 20 | 339 | 0.0 | 0.0 | 0.00 | 0.00 | 0.00 | 99 | 1015.7 |
| 20260906113830 | 20 | 339 | 1.6 | 1.6 | 0.00 | 0.00 | 0.00 | 99 | 1015.7 |
| 20260906113329 | 20 | 322 | 3.2 | 4.8 | 0.00 | 0.00 | 0.00 | 99 | 1015.5 |
| 20260906112824 | 20 | 322 | 0.0 | 1.6 | 0.00 | 0.00 | 0.00 | 99 | 1015.5 |
| 20260906112320 | 20 | 322 | 0.0 | 1.6 | 0.00 | 0.00 | 0.00 | 99 | 1015.6 |
| 20260906111820 | 20 | 322 | 1.6 | 3.2 | 0.00 | 0.00 | 0.00 | 99 | 1015.3 |
| 20260906111319 | 20 | 322 | 1.6 | 3.2 | 0.00 | 0.00 | 0.00 | 99 | 1015.4 |
| 20260906110814 | 20 | 322 | 1.6 | 1.6 | 0.00 | 0.00 | 0.00 | 99 | 1015.1 |
| 20260906110310 | 20 | 322 | 1.6 | 3.2 | 0.00 | 0.00 | 0.00 | 99 | 1015.1 |
| 20260906105809 | 20 | 322 | 1.6 | 1.6 | 0.00 | 0.00 | 0.00 | 99 | 1014.9 |
| 20260906105306 | 20 | 322 | 1.6 | 3.2 | 0.00 | 0.00 | 0.00 | 99 | 1014.8 |
| 20260906104800 | 20 | 322 | 1.6 | 4.8 | 0.00 | 0.00 | 0.00 | 99 | 1014.8 |
| 20260906104259 | 20 | 322 | 1.6 | 3.2 | 0.00 | 0.00 | 0.00 | 99 | 1014.9 |
| 20260906103757 | 20 | 322 | 3.2 | 3.2 | 0.00 | 0.00 | 0.00 | 99 | 1014.9 |
| 20260906103257 | 20 | 322 | 1.6 | 3.2 | 0.00 | 0.00 | 0.00 | 99 | 1015.0 |
| 20260906102753 | 20 | 322 | 1.6 | 1.6 | 0.00 | 0.00 | 0.00 | 99 | 1014.8 |
| 20260906102251 | 20 | 322 | 0.0 | 3.2 | 0.00 | 0.00 | 0.00 | 99 | 1014.7 |
| 20260906101747 | 20 | 322 | 3.2 | 4.8 | 0.00 | 0.00 | 0.00 | 99 | 1014.6 |
| 20260906101242 | 20 | 322 | 1.6 | 3.2 | 0.00 | 0.00 | 0.00 | 99 | 1014.8 |
| 20260906100737 | 20 | 322 | 1.6 | 3.2 | 0.00 | 0.00 | 0.00 | 99 | 1014.8 |
| 20260906100236 | 20 | 322 | 3.2 | 3.2 | 0.00 | 0.00 | 0.00 | 99 | 1014.6 |
| 20260906095732 | 20 | 322 | 1.6 | 1.6 | 0.00 | 0.00 | 0.00 | 99 | 1014.4 |
| 20260906095227 | 20 | 322 | 1.6 | 1.6 | 0.00 | 0.00 | 0.00 | 99 | 1014.7 |
| 20260906094726 | 20 | 322 | 0.0 | 3.2 | 0.00 | 0.00 | 0.00 | 99 | 1014.7 |
| 20260906094222 | 20 | 322 | 0.0 | 1.6 | 0.00 | 0.00 | 0.00 | 99 | 1014.7 |
| 20260906093718 | 20 | 322 | 0.0 | 1.6 | 0.00 | 0.00 | 0.00 | 99 | 1014.7 |
| 20260906093213 | 20 | 322 | 0.0 | 0.0 | 0.00 | 0.00 | 0.00 | 99 | 1014.6 |
| 20260906092709 | 20 | 322 | 0.0 | 1.6 | 0.00 | 0.00 | 0.00 | 99 | 1014.7 |
| 20260906092208 | 20 | 322 | 0.0 | 1.6 | 0.00 | 0.00 | 0.00 | 99 | 1014.8 |
| 20260906091704 | 20 | 322 | 0.0 | 0.0 | 0.00 | 0.00 | 0.00 | 99 | 1014.8 |
| 20260906091200 | 20 | 322 | 0.0 | 0.0 | 0.00 | 0.00 | 0.00 | 99 | 1014.8 |
| 20260906090656 | 20 | 322 | 0.0 | 0.0 | 0.00 | 0.00 | 0.00 | 99 | 1014.8 |
| 20260906090155 | 20 | 322 | 0.0 | 0.0 | 0.00 | 0.00 | 0.00 | 99 | 1014.7 |
| 20260906085655 | 20 | 322 | 0.0 | 0.0 | 0.00 | 0.00 | 0.00 | 99 | 1014.7 |
| 20260906085154 | 20 | 322 | 0.0 | 0.0 | 0.00 | 0.00 | 0.00 | 99 | 1014.8 |
| 20260906084649 | 20 | 322 | 0.0 | 0.0 | 0.00 | 0.00 | 0.00 | 99 | 1014.7 |
| 20260906084148 | 20 | 322 | 0.0 | 0.0 | 0.00 | 0.00 | 0.00 | 99 | 1014.7 |
| 20260906083643 | 20 | 322 | 0.0 | 0.0 | 0.00 | 0.00 | 0.00 | 99 | 1014.7 |
| 20260906083139 | 20 | 322 | 0.0 | 0.0 | 0.00 | 0.00 | 0.00 | 99 | 1014.5 |
| 20260906082634 | 20 | 322 | 0.0 | 0.0 | 0.00 | 0.00 | 0.00 | 99 | 1014.6 |
| 20260906082129 | 20 | 322 | 0.0 | 0.0 | 0.00 | 0.00 | 0.00 | 99 | 1014.6 |
| 20260906081625 | 20 | 322 | 1.6 | 1.6 | 0.00 | 0.00 | 0.00 | 99 | 1014.6 |
| 20260906081120 | 20 | 322 | 0.0 | 0.0 | 0.00 | 0.00 | 0.00 | 99 | 1014.5 |
| 20260906080617 | 20 | 322 | 0.0 | 0.0 | 0.00 | 0.00 | 0.00 | 99 | 1014.5 |
| 20260906080113 | 20 | 322 | 0.0 | 1.6 | 0.00 | 0.00 | 0.00 | 99 | 1014.6 |
| 20260906075612 | 20 | 322 | 1.6 | 1.6 | 0.00 | 0.00 | 0.00 | 99 | 1014.6 |
| 20260906075107 | 20 | 322 | 1.6 | 1.6 | 0.00 | 0.00 | 0.00 | 99 | 1014.4 |
| 20260906074602 | 20 | 322 | 1.6 | 1.6 | 0.00 | 0.00 | 0.00 | 99 | 1014.5 |
| 20260906074101 | 20 | 322 | 1.6 | 1.6 | 0.00 | 0.00 | 0.00 | 99 | 1014.3 |
| 20260906073556 | 20 | 322 | 0.0 | 0.0 | 0.00 | 0.00 | 0.00 | 99 | 1014.3 |
| 20260906073046 | 20 | 322 | 0.0 | 0.0 | 0.00 | 0.00 | 0.00 | 99 | 1014.2 |
| 20260906072540 | 20 | 322 | 0.0 | 0.0 | 0.00 | 0.00 | 0.00 | 99 | 1014.4 |
| 20260906072037 | 20 | 322 | 0.0 | 0.0 | 0.00 | 0.00 | 0.00 | 99 | 1014.3 |
| 20260906071533 | 20 | 322 | 1.6 | 1.6 | 0.00 | 0.00 | 0.00 | 99 | 1014.5 |
| 20260906071027 | 20 | 322 | 0.0 | 0.0 | 0.00 | 0.00 | 0.00 | 99 | 1014.4 |
| 20260906070524 | 20 | 322 | 1.6 | 1.6 | 0.00 | 0.00 | 0.00 | 99 | 1014.5 |
| 20260906070020 | 20 | 322 | 0.0 | 0.0 | 0.00 | 0.00 | 0.00 | 99 | 1014.5 |
| 20260906065519 | 20 | 322 | 0.0 | 1.6 | 0.00 | 0.00 | 0.00 | 99 | 1014.6 |
| 20260906065015 | 20 | 322 | 0.0 | 1.6 | 0.00 | 0.00 | 0.00 | 99 | 1014.6 |
| 20260906064511 | 20 | 322 | 0.0 | 3.2 | 0.00 | 0.00 | 0.00 | 99 | 1014.7 |
| 20260906064011 | 20 | 322 | 3.2 | 3.2 | 0.00 | 0.00 | 0.00 | 99 | 1014.7 |
| 20260906063506 | 20 | 322 | 1.6 | 3.2 | 0.00 | 0.00 | 0.00 | 99 | 1014.8 |
| 20260906063001 | 20 | 322 | 0.0 | 0.0 | 0.00 | 0.00 | 0.00 | 99 | 1014.6 |
| 20260906062456 | 20 | 322 | 0.0 | 0.0 | 0.00 | 0.00 | 0.00 | 99 | 1014.6 |
| 20260906061951 | 20 | 322 | 0.0 | 0.0 | 0.00 | 0.00 | 0.00 | 99 | 1014.6 |
| 20260906061447 | 20 | 322 | 0.0 | 0.0 | 0.00 | 0.00 | 0.00 | 99 | 1014.5 |
| 20260906060941 | 20 | 322 | 0.0 | 0.0 | 0.00 | 0.00 | 0.00 | 99 | 1014.5 |
| 20260906060438 | 20 | 322 | 0.0 | 0.0 | 0.00 | 0.00 | 0.00 | 99 | 1014.5 |
| 20260906055934 | 20 | 322 | 0.0 | 0.0 | 0.00 | 0.00 | 0.00 | 99 | 1014.6 |
| 20260906055430 | 20 | 322 | 0.0 | 0.0 | 0.00 | 0.00 | 0.00 | 99 | 1014.6 |
| 20260906054925 | 20 | 322 | 0.0 | 0.0 | 0.00 | 0.00 | 0.00 | 99 | 1014.8 |
| 20260906054420 | 20 | 322 | 0.0 | 0.0 | 0.00 | 0.00 | 0.00 | 99 | 1014.6 |
| 20260906053916 | 20 | 322 | 0.0 | 0.0 | 0.00 | 0.00 | 0.00 | 99 | 1014.4 |
| 20260906053412 | 20 | 322 | 0.0 | 0.0 | 0.00 | 0.00 | 0.00 | 99 | 1014.5 |
| 20260906052908 | 20 | 322 | 0.0 | 0.0 | 0.00 | 0.00 | 0.00 | 99 | 1014.5 |
| 20260906052404 | 20 | 322 | 0.0 | 0.0 | 0.00 | 0.00 | 0.00 | 99 | 1014.5 |
| 20260906051900 | 20 | 322 | 3.2 | 3.2 | 0.00 | 0.00 | 0.00 | 99 | 1014.5 |
| 20260906051400 | 20 | 322 | 0.0 | 0.0 | 0.00 | 0.00 | 0.00 | 99 | 1014.3 |
| 20260906050856 | 20 | 322 | 0.0 | 0.0 | 0.00 | 0.00 | 0.00 | 99 | 1014.3 |
| 20260906050350 | 20 | 322 | 0.0 | 0.0 | 0.00 | 0.00 | 0.00 | 99 | 1014.4 |
| 20260906045849 | 20 | 322 | 0.0 | 0.0 | 0.00 | 0.00 | 0.00 | 99 | 1014.5 |
| 20260906045343 | 20 | 322 | 0.0 | 0.0 | 0.00 | 0.00 | 0.00 | 99 | 1014.4 |
| 20260906044840 | 20 | 322 | 0.0 | 0.0 | 0.00 | 0.00 | 0.00 | 99 | 1014.4 |
| 20260906044334 | 20 | 322 | 0.0 | 0.0 | 0.00 | 0.00 | 0.00 | 99 | 1014.4 |
| 20260906043830 | 20 | 322 | 0.0 | 0.0 | 0.00 | 0.00 | 0.00 | 99 | 1014.4 |
| 20260906043326 | 20 | 322 | 0.0 | 0.0 | 0.00 | 0.00 | 0.00 | 99 | 1014.6 |
| 20260906042826 | 20 | 322 | 0.0 | 0.0 | 0.00 | 0.00 | 0.00 | 99 | 1014.5 |
| 20260906042325 | 20 | 322 | 0.0 | 0.0 | 0.00 | 0.00 | 0.00 | 99 | 1014.6 |
| 20260906041821 | 20 | 322 | 0.0 | 0.0 | 0.00 | 0.00 | 0.00 | 99 | 1014.7 |
| 20260906041316 | 20 | 322 | 0.0 | 0.0 | 0.00 | 0.00 | 0.00 | 99 | 1014.7 |
| 20260906040811 | 20 | 322 | 0.0 | 0.0 | 0.00 | 0.00 | 0.00 | 99 | 1014.8 |
| 20260906040306 | 20 | 322 | 0.0 | 0.0 | 0.00 | 0.00 | 0.00 | 99 | 1014.7 |
| 20260906035801 | 21 | 322 | 0.0 | 0.0 | 0.00 | 1.30 | 1.30 | 99 | 1014.8 |
| 20260906035257 | 21 | 322 | 0.0 | 0.0 | 0.00 | 1.30 | 1.30 | 99 | 1014.8 |
| 20260906034751 | 21 | 322 | 0.0 | 0.0 | 0.00 | 1.30 | 1.30 | 99 | 1015.1 |
| 20260906034246 | 20 | 322 | 0.0 | 0.0 | 0.00 | 1.30 | 1.30 | 99 | 1015.0 |
| 20260906033742 | 21 | 322 | 0.0 | 0.0 | 0.00 | 1.30 | 1.30 | 99 | 1015.1 |
| 20260906033242 | 21 | 322 | 0.0 | 0.0 | 0.00 | 1.30 | 1.30 | 99 | 1015.2 |
| 20260906032738 | 21 | 322 | 0.0 | 0.0 | 0.00 | 1.30 | 1.30 | 99 | 1014.9 |
| 20260906032238 | 21 | 322 | 0.0 | 0.0 | 0.00 | 1.30 | 1.30 | 99 | 1015.3 |
| 20260906031733 | 21 | 322 | 0.0 | 0.0 | 0.00 | 1.30 | 1.30 | 99 | 1015.2 |
| 20260906031229 | 21 | 322 | 0.0 | 0.0 | 0.00 | 1.30 | 1.30 | 99 | 1015.1 |
| 20260906030728 | 21 | 322 | 0.0 | 0.0 | 0.00 | 1.30 | 1.30 | 99 | 1015.2 |
| 20260906030223 | 21 | 322 | 0.0 | 0.0 | 0.00 | 1.30 | 1.30 | 99 | 1015.3 |
| 20260906025723 | 21 | 322 | 0.0 | 0.0 | 0.00 | 1.30 | 1.30 | 99 | 1015.3 |
| 20260906025218 | 21 | 322 | 0.0 | 0.0 | 0.18 | 1.30 | 1.30 | 99 | 1015.2 |
| 20260906024717 | 21 | 322 | 0.0 | 0.0 | 0.18 | 1.30 | 1.30 | 99 | 1015.4 |
| 20260906024216 | 21 | 322 | 1.6 | 1.6 | 0.00 | 1.27 | 1.27 | 99 | 1015.2 |
| 20260906023713 | 21 | 322 | 0.0 | 0.0 | 0.00 | 1.27 | 1.27 | 99 | 1015.2 |
| 20260906023213 | 21 | 322 | 0.0 | 1.6 | 0.00 | 1.27 | 1.27 | 99 | 1015.2 |
| 20260906022708 | 21 | 322 | 1.6 | 3.2 | 0.00 | 1.27 | 1.27 | 99 | 1015.3 |
| 20260906022203 | 21 | 322 | 0.0 | 1.6 | 0.00 | 1.27 | 1.27 | 99 | 1015.3 |
| 20260906021659 | 21 | 322 | 3.2 | 4.8 | 0.00 | 1.27 | 1.27 | 99 | 1015.0 |
| 20260906021157 | 21 | 322 | 4.8 | 4.8 | 0.00 | 1.27 | 1.27 | 99 | 1015.1 |
| 20260906020652 | 21 | 322 | 3.2 | 12.9 | 0.00 | 1.27 | 1.27 | 99 | 1015.1 |
| 20260906020147 | 21 | 318 | 8.0 | 12.9 | 0.00 | 1.27 | 1.27 | 99 | 1015.1 |
| 20260906015641 | 21 | 341 | 4.8 | 11.3 | 0.30 | 1.27 | 1.27 | 99 | 1014.8 |
| 20260906015141 | 21 | 353 | 4.8 | 4.8 | 0.30 | 1.27 | 1.27 | 99 | 1015.1 |
| 20260906014640 | 21 | 354 | 3.2 | 14.5 | 0.00 | 1.22 | 1.22 | 99 | 1015.1 |
| 20260906014137 | 21 | 2 | 3.2 | 9.7 | 0.00 | 1.22 | 1.22 | 99 | 1015.0 |
| 20260906013632 | 21 | 354 | 8.0 | 9.7 | 0.00 | 1.22 | 1.22 | 99 | 1014.9 |
| 20260906013128 | 21 | 273 | 0.0 | 0.0 | 0.00 | 1.22 | 1.22 | 99 | 1014.6 |
| 20260906012627 | 21 | 273 | 0.0 | 0.0 | 0.00 | 1.22 | 1.22 | 99 | 1014.3 |
| 20260906012122 | 21 | 273 | 0.0 | 0.0 | 0.00 | 1.22 | 1.22 | 99 | 1014.3 |
| 20260906011618 | 21 | 273 | 0.0 | 0.0 | 0.00 | 1.22 | 1.22 | 99 | 1014.2 |
| 20260906011118 | 21 | 273 | 0.0 | 0.0 | 0.00 | 1.22 | 1.22 | 99 | 1014.2 |
| 20260906010614 | 21 | 273 | 0.0 | 0.0 | 0.00 | 1.22 | 1.22 | 99 | 1014.0 |
| 20260906010110 | 21 | 273 | 0.0 | 0.0 | 0.00 | 1.22 | 1.22 | 99 | 1014.3 |
| 20260906005609 | 21 | 273 | 0.0 | 0.0 | 0.00 | 1.22 | 1.22 | 99 | 1014.2 |
| 20260906005109 | 21 | 273 | 0.0 | 0.0 | 0.00 | 1.22 | 1.22 | 98 | 1013.8 |
| 20260906004608 | 21 | 273 | 0.0 | 0.0 | 0.00 | 1.22 | 1.22 | 98 | 1013.8 |
| 20260906004103 | 21 | 273 | 0.0 | 0.0 | 0.00 | 1.22 | 1.22 | 97 | 1013.5 |
| 20260906003558 | 21 | 273 | 0.0 | 0.0 | 0.00 | 1.22 | 1.22 | 97 | 1013.7 |
| 20260906003055 | 22 | 273 | 0.0 | 0.0 | 0.00 | 1.22 | 1.22 | 97 | 1013.9 |
| 20260906002554 | 22 | 273 | 0.0 | 0.0 | 0.00 | 1.22 | 1.22 | 96 | 1013.7 |
| 20260906002050 | 22 | 273 | 0.0 | 0.0 | 0.00 | 1.22 | 1.22 | 95 | 1013.6 |
| 20260906001545 | 22 | 273 | 0.0 | 0.0 | 0.00 | 1.22 | 1.22 | 95 | 1013.7 |
| 20260906001045 | 22 | 273 | 0.0 | 1.6 | 0.00 | 1.22 | 1.22 | 95 | 1013.7 |
| 20260906000541 | 22 | 273 | 0.0 | 0.0 | 0.00 | 1.22 | 1.22 | 94 | 1013.8 |
| 20260906000036 | 22 | 273 | 0.0 | 0.0 | 0.00 | 1.22 | 1.22 | 94 | 1013.9 |
| 20260905235535 | 23 | 272 | 0.0 | 0.0 | 0.00 | 1.22 | 1.22 | 93 | 1013.7 |
| 20260905235031 | 23 | 272 | 0.0 | 0.0 | 0.00 | 1.22 | 1.22 | 92 | 1013.7 |
| 20260905234526 | 23 | 272 | 0.0 | 0.0 | 0.00 | 1.22 | 1.22 | 90 | 1013.8 |
| 20260905234020 | 23 | 272 | 0.0 | 0.0 | 0.00 | 1.22 | 1.22 | 90 | 1013.8 |
| 20260905233515 | 24 | 272 | 0.0 | 0.0 | 0.00 | 1.22 | 1.22 | 88 | 1013.9 |
| 20260905233015 | 24 | 272 | 0.0 | 0.0 | 0.00 | 1.22 | 1.22 | 87 | 1013.8 |
| 20260905232510 | 25 | 272 | 0.0 | 0.0 | 0.00 | 1.22 | 1.22 | 86 | 1013.8 |
| 20260905232006 | 25 | 272 | 0.0 | 0.0 | 0.00 | 1.22 | 1.22 | 86 | 1013.9 |
| 20260905231501 | 25 | 272 | 0.0 | 0.0 | 0.00 | 1.22 | 1.22 | 86 | 1013.8 |
| 20260905230958 | 25 | 272 | 0.0 | 0.0 | 0.00 | 1.22 | 1.22 | 86 | 1014.1 |
| 20260905230456 | 25 | 272 | 0.0 | 0.0 | 0.00 | 1.22 | 1.22 | 85 | 1013.8 |
| 20260905225954 | 26 | 272 | 0.0 | 1.6 | 0.00 | 1.22 | 1.22 | 83 | 1013.8 |
| 20260905225449 | 26 | 272 | 0.0 | 1.6 | 0.00 | 1.22 | 1.22 | 83 | 1013.8 |
| 20260905224944 | 26 | 272 | 1.6 | 1.6 | 0.00 | 1.22 | 1.22 | 82 | 1014.0 |
| 20260905224440 | 26 | 272 | 1.6 | 1.6 | 0.00 | 1.22 | 1.22 | 81 | 1013.9 |
| 20260905223939 | 26 | 272 | 3.2 | 3.2 | 0.00 | 1.22 | 1.22 | 78 | 1013.9 |
| 20260905223437 | 26 | 272 | 1.6 | 1.6 | 0.00 | 1.22 | 1.22 | 78 | 1013.9 |
| 20260905222932 | 27 | 272 | 3.2 | 3.2 | 0.00 | 1.22 | 1.22 | 78 | 1013.9 |
| 20260905222431 | 26 | 272 | 1.6 | 3.2 | 0.00 | 1.22 | 1.22 | 77 | 1013.8 |
| 20260905221927 | 26 | 272 | 3.2 | 3.2 | 0.00 | 1.22 | 1.22 | 75 | 1014.0 |
| 20260905221424 | 27 | 272 | 3.2 | 3.2 | 0.00 | 1.22 | 1.22 | 75 | 1013.8 |
| 20260905220920 | 27 | 272 | 3.2 | 4.8 | 0.00 | 1.22 | 1.22 | 74 | 1013.9 |
| 20260905220415 | 27 | 300 | 1.6 | 9.7 | 0.00 | 1.22 | 1.22 | 73 | 1013.9 |
| 20260905215914 | 27 | 301 | 3.2 | 3.2 | 0.00 | 1.22 | 1.22 | 74 | 1013.9 |
| 20260905215410 | 27 | 301 | 0.0 | 0.0 | 0.00 | 1.22 | 1.22 | 72 | 1013.8 |
| 20260905214906 | 27 | 301 | 3.2 | 4.8 | 0.00 | 1.22 | 1.22 | 71 | 1013.8 |
| 20260905214402 | 28 | 301 | 4.8 | 4.8 | 0.00 | 1.22 | 1.22 | 70 | 1013.8 |
| 20260905213856 | 28 | 301 | 1.6 | 3.2 | 0.00 | 1.22 | 1.22 | 70 | 1013.6 |
| 20260905213353 | 27 | 301 | 3.2 | 4.8 | 0.00 | 1.22 | 1.22 | 71 | 1013.7 |
| 20260905212853 | 28 | 290 | 9.7 | 12.9 | 0.00 | 1.22 | 1.22 | 68 | 1013.9 |
| 20260905212348 | 28 | 310 | 4.8 | 9.7 | 0.00 | 1.22 | 1.22 | 67 | 1013.6 |
| 20260905211847 | 29 | 323 | 8.0 | 9.7 | 0.00 | 1.22 | 1.22 | 66 | 1013.4 |
| 20260905211343 | 29 | 315 | 1.6 | 3.2 | 0.00 | 1.22 | 1.22 | 67 | 1013.5 |
| 20260905210839 | 28 | 315 | 3.2 | 4.8 | 0.00 | 1.22 | 1.22 | 68 | 1013.4 |
| 20260905210339 | 28 | 315 | 0.0 | 1.6 | 0.00 | 1.22 | 1.22 | 69 | 1013.4 |
| 20260905205838 | 28 | 315 | 8.0 | 9.7 | 0.00 | 1.22 | 1.22 | 69 | 1013.5 |
| 20260905205333 | 28 | 299 | 6.4 | 9.7 | 0.00 | 1.22 | 1.22 | 69 | 1013.4 |
| 20260905204832 | 28 | 271 | 3.2 | 6.4 | 0.00 | 1.22 | 1.22 | 70 | 1013.6 |
| 20260905204328 | 28 | 272 | 3.2 | 6.4 | 0.00 | 1.22 | 1.22 | 67 | 1013.2 |
| 20260905203827 | 28 | 290 | 1.6 | 4.8 | 0.00 | 1.22 | 1.22 | 69 | 1013.5 |
| 20260905203323 | 28 | 288 | 3.2 | 6.4 | 0.00 | 1.22 | 1.22 | 67 | 1013.4 |
| 20260905202818 | 28 | 259 | 3.2 | 4.8 | 0.00 | 1.22 | 1.22 | 68 | 1013.5 |
| 20260905202313 | 28 | 258 | 3.2 | 6.4 | 0.00 | 1.22 | 1.22 | 69 | 1013.7 |
| 20260905201809 | 28 | 267 | 4.8 | 6.4 | 0.00 | 1.22 | 1.22 | 71 | 1013.6 |
| 20260905201304 | 28 | 318 | 1.6 | 6.4 | 0.00 | 1.22 | 1.22 | 68 | 1013.7 |
| 20260905200758 | 28 | 318 | 1.6 | 6.4 | 0.00 | 1.22 | 1.22 | 67 | 1013.6 |
| 20260905200255 | 28 | 318 | 4.8 | 6.4 | 0.00 | 1.22 | 1.22 | 67 | 1013.5 |
| 20260905195752 | 28 | 318 | 0.0 | 1.6 | 0.00 | 1.22 | 1.22 | 70 | 1013.7 |
| 20260905195247 | 27 | 318 | 1.6 | 6.4 | 0.00 | 1.22 | 1.22 | 69 | 1014.0 |
| 20260905194743 | 28 | 317 | 6.4 | 11.3 | 0.00 | 1.22 | 1.22 | 68 | 1014.0 |
| 20260905194242 | 28 | 229 | 4.8 | 4.8 | 0.00 | 1.22 | 1.22 | 70 | 1014.2 |
| 20260905193742 | 28 | 202 | 3.2 | 9.7 | 0.00 | 1.22 | 1.22 | 70 | 1014.1 |
| 20260905193237 | 29 | 308 | 1.6 | 4.8 | 0.00 | 1.22 | 1.22 | 66 | 1014.1 |
| 20260905192733 | 28 | 309 | 0.0 | 3.2 | 0.00 | 1.22 | 1.22 | 65 | 1014.3 |
| 20260905192229 | 28 | 309 | 4.8 | 4.8 | 0.00 | 1.22 | 1.22 | 65 | 1014.3 |
| 20260905191728 | 28 | 309 | 3.2 | 9.7 | 0.00 | 1.22 | 1.22 | 66 | 1014.4 |
| 20260905191226 | 28 | 300 | 4.8 | 9.7 | 0.00 | 1.22 | 1.22 | 69 | 1014.4 |
| 20260905190725 | 28 | 259 | 3.2 | 6.4 | 0.00 | 1.22 | 1.22 | 69 | 1014.5 |
| 20260905190224 | 29 | 298 | 4.8 | 9.7 | 0.00 | 1.22 | 1.22 | 64 | 1014.4 |
| 20260905185723 | 29 | 209 | 1.6 | 3.2 | 0.00 | 1.22 | 1.22 | 65 | 1014.6 |
| 20260905185218 | 28 | 209 | 1.6 | 4.8 | 0.00 | 1.22 | 1.22 | 68 | 1014.8 |
| 20260905184713 | 28 | 26 | 0.0 | 3.2 | 0.00 | 1.22 | 1.22 | 70 | 1014.7 |
| 20260905184212 | 27 | 26 | 3.2 | 4.8 | 0.00 | 1.22 | 1.22 | 67 | 1015.0 |
| 20260905183711 | 28 | 26 | 1.6 | 4.8 | 0.00 | 1.22 | 1.22 | 67 | 1014.8 |
| 20260905183207 | 28 | 64 | 1.6 | 4.8 | 0.00 | 1.22 | 1.22 | 67 | 1014.9 |
| 20260905182706 | 28 | 64 | 6.4 | 6.4 | 0.00 | 1.22 | 1.22 | 66 | 1015.0 |
| 20260905182206 | 28 | 65 | 0.0 | 3.2 | 0.00 | 1.22 | 1.22 | 66 | 1014.9 |
| 20260905181701 | 27 | 65 | 3.2 | 4.8 | 0.00 | 1.22 | 1.22 | 68 | 1014.9 |
| 20260905181200 | 27 | 65 | 1.6 | 3.2 | 0.00 | 1.22 | 1.22 | 68 | 1014.9 |
| 20260905180655 | 27 | 59 | 3.2 | 4.8 | 0.00 | 1.22 | 1.22 | 74 | 1014.9 |
| 20260905180151 | 27 | 97 | 0.0 | 3.2 | 0.00 | 1.22 | 1.22 | 71 | 1015.0 |
| 20260905175649 | 26 | 55 | 0.0 | 3.2 | 0.00 | 1.22 | 1.22 | 75 | 1015.1 |
| 20260905175145 | 26 | 48 | 6.4 | 6.4 | 0.00 | 1.22 | 1.22 | 74 | 1015.2 |
| 20260905174641 | 26 | 47 | 4.8 | 6.4 | 0.00 | 1.22 | 1.22 | 75 | 1015.2 |
| 20260905174136 | 26 | 351 | 4.8 | 6.4 | 0.00 | 1.22 | 1.22 | 76 | 1015.4 |
| 20260905173632 | 26 | 348 | 3.2 | 4.8 | 0.00 | 1.22 | 1.22 | 74 | 1015.5 |
| 20260905173128 | 26 | 346 | 0.0 | 3.2 | 0.00 | 1.22 | 1.22 | 77 | 1015.7 |
| 20260905172626 | 26 | 9 | 3.2 | 3.2 | 0.00 | 1.22 | 1.22 | 76 | 1015.7 |
| 20260905172121 | 27 | 0 | 1.6 | 3.2 | 0.00 | 1.22 | 1.22 | 75 | 1015.9 |
| 20260905171618 | 26 | 359 | 6.4 | 6.4 | 0.00 | 1.22 | 1.22 | 75 | 1016.0 |
| 20260905171113 | 26 | 63 | 3.2 | 4.8 | 0.00 | 1.22 | 1.22 | 78 | 1015.9 |
| 20260905170610 | 26 | 2 | 1.6 | 4.8 | 0.00 | 1.22 | 1.22 | 79 | 1015.7 |
| 20260905170105 | 26 | 322 | 3.2 | 4.8 | 0.00 | 1.22 | 1.22 | 79 | 1015.9 |
| 20260905165600 | 26 | 322 | 0.0 | 3.2 | 0.00 | 1.22 | 1.22 | 83 | 1016.1 |
| 20260905165055 | 25 | 321 | 6.4 | 6.4 | 0.00 | 1.22 | 1.22 | 84 | 1016.3 |
| 20260905164550 | 25 | 322 | 4.8 | 6.4 | 0.00 | 1.22 | 1.22 | 80 | 1016.3 |
| 20260905164049 | 25 | 322 | 3.2 | 4.8 | 0.00 | 1.22 | 1.22 | 84 | 1016.3 |
| 20260905163546 | 26 | 323 | 6.4 | 11.3 | 0.00 | 1.22 | 1.22 | 82 | 1016.4 |
| 20260905163041 | 26 | 344 | 4.8 | 9.7 | 0.00 | 1.22 | 1.22 | 80 | 1016.4 |
| 20260905162538 | 26 | 94 | 0.0 | 4.8 | 0.00 | 1.22 | 1.22 | 83 | 1016.4 |
| 20260905162032 | 25 | 351 | 1.6 | 4.8 | 0.00 | 1.22 | 1.22 | 86 | 1016.5 |
| 20260905161532 | 25 | 293 | 3.2 | 6.4 | 0.00 | 1.22 | 1.22 | 87 | 1016.6 |
| 20260905161029 | 24 | 33 | 4.8 | 9.7 | 0.00 | 1.22 | 1.22 | 89 | 1016.6 |
| 20260905160528 | 24 | 345 | 4.8 | 12.9 | 0.00 | 1.22 | 1.22 | 90 | 1016.7 |
| 20260905160023 | 23 | 298 | 4.8 | 9.7 | 0.00 | 1.22 | 1.22 | 94 | 1016.6 |
| 20260905155523 | 23 | 11 | 1.6 | 9.7 | 0.00 | 1.22 | 1.22 | 96 | 1016.3 |
| 20260905155021 | 23 | 339 | 3.2 | 4.8 | 0.00 | 1.22 | 1.22 | 98 | 1016.6 |
| 20260905154517 | 22 | 352 | 0.0 | 6.4 | 0.00 | 1.22 | 1.22 | 99 | 1016.6 |
| 20260905154012 | 22 | 321 | 3.2 | 4.8 | 0.00 | 1.22 | 1.22 | 99 | 1016.5 |
| 20260905153508 | 21 | 7 | 6.4 | 11.3 | 0.00 | 1.22 | 1.22 | 99 | 1016.6 |
| 20260905153008 | 21 | 328 | 9.7 | 11.3 | 0.00 | 1.22 | 1.22 | 99 | 1016.7 |
| 20260905152508 | 21 | 335 | 9.7 | 12.9 | 0.00 | 1.22 | 1.22 | 99 | 1016.6 |
| 20260905152002 | 21 | 326 | 6.4 | 9.7 | 0.00 | 1.22 | 1.22 | 99 | 1016.1 |
| 20260905151458 | 21 | 202 | 4.8 | 4.8 | 0.00 | 1.22 | 1.22 | 99 | 1015.7 |
| 20260905150952 | 21 | 199 | 1.6 | 3.2 | 0.00 | 1.22 | 1.22 | 99 | 1015.5 |
| 20260905150448 | 20 | 198 | 3.2 | 3.2 | 0.00 | 1.22 | 1.22 | 99 | 1015.3 |
| 20260905145944 | 20 | 198 | 3.2 | 4.8 | 0.00 | 1.22 | 1.22 | 99 | 1014.9 |
| 20260905145440 | 20 | 199 | 6.4 | 11.3 | 0.00 | 1.22 | 1.22 | 99 | 1014.9 |
| 20260905144939 | 20 | 231 | 3.2 | 9.7 | 0.00 | 1.22 | 1.22 | 99 | 1014.9 |
| 20260905144434 | 20 | 149 | 11.3 | 16.1 | 0.00 | 1.22 | 1.22 | 99 | 1014.8 |
| 20260905143933 | 20 | 196 | 4.8 | 6.4 | 0.00 | 1.22 | 1.22 | 99 | 1015.0 |
| 20260905143432 | 20 | 163 | 6.4 | 11.3 | 0.00 | 1.22 | 1.22 | 99 | 1015.2 |
| 20260905142932 | 20 | 139 | 4.8 | 4.8 | 0.00 | 1.22 | 1.22 | 99 | 1015.3 |
| 20260905142431 | 20 | 143 | 8.0 | 9.7 | 0.00 | 1.22 | 1.22 | 99 | 1015.6 |
| 20260905141922 | 20 | 162 | 8.0 | 11.3 | 0.00 | 1.22 | 1.22 | 99 | 1015.7 |
| 20260905141421 | 20 | 210 | 3.2 | 6.4 | 0.00 | 1.22 | 1.22 | 99 | 1016.4 |
| 20260905140918 | 20 | 210 | 1.6 | 3.2 | 0.00 | 1.22 | 1.22 | 99 | 1016.5 |
| 20260905140413 | 20 | 230 | 3.2 | 4.8 | 0.00 | 1.22 | 1.22 | 99 | 1016.3 |
| 20260905135912 | 19 | 230 | 3.2 | 6.4 | 0.13 | 1.22 | 1.22 | 99 | 1016.5 |
| 20260905135408 | 19 | 230 | 3.2 | 4.8 | 0.30 | 1.22 | 1.22 | 99 | 1016.5 |
| 20260905134903 | 19 | 230 | 4.8 | 4.8 | 0.18 | 1.19 | 1.19 | 99 | 1016.6 |
| 20260905134401 | 19 | 232 | 0.0 | 0.0 | 0.00 | 1.17 | 1.17 | 99 | 1016.5 |
| 20260905133856 | 19 | 187 | 3.2 | 6.4 | 0.00 | 1.17 | 1.17 | 99 | 1016.7 |
| 20260905133351 | 19 | 143 | 4.8 | 9.7 | 0.00 | 1.17 | 1.17 | 99 | 1016.9 |
| 20260905132851 | 19 | 136 | 4.8 | 4.8 | 0.00 | 1.17 | 1.17 | 99 | 1016.9 |
| 20260905132347 | 19 | 135 | 4.8 | 6.4 | 0.13 | 1.17 | 1.17 | 99 | 1016.7 |
| 20260905131846 | 19 | 135 | 3.2 | 4.8 | 0.30 | 1.17 | 1.17 | 99 | 1016.8 |
| 20260905131342 | 19 | 135 | 3.2 | 4.8 | 0.48 | 1.14 | 1.14 | 99 | 1017.0 |
| 20260905130837 | 19 | 136 | 3.2 | 3.2 | 0.61 | 1.12 | 1.12 | 99 | 1017.4 |
| 20260905130335 | 19 | 135 | 6.4 | 6.4 | 0.48 | 1.07 | 1.07 | 99 | 1017.1 |
| 20260905125831 | 19 | 132 | 6.4 | 6.4 | 0.48 | 1.02 | 1.02 | 99 | 1017.2 |
| 20260905125326 | 19 | 269 | 1.6 | 1.6 | 0.43 | 0.99 | 0.99 | 99 | 1017.2 |
| 20260905124822 | 19 | 269 | 1.6 | 3.2 | 0.43 | 0.94 | 0.94 | 99 | 1017.2 |
| 20260905124318 | 19 | 269 | 0.0 | 3.2 | 0.48 | 0.91 | 0.91 | 99 | 1017.4 |
| 20260905123813 | 19 | 269 | 1.6 | 3.2 | 0.30 | 0.86 | 0.86 | 99 | 1017.0 |